Regional Weather Roundup
Issued by NWS

Home | Current Version | Previous Version | Text Only | Print | Product List | Glossary Off
Versions: 1 2 3 4 5 6 7 8 9 10 11 12 13 14 15 16 17 18 19 20 21 22 23 24 25 26 27 28 29 30 31 32 33 34 35 36 37 38 39 40 41 42 43 44 45 46 47 48 49 50

000
ASUS45 KCYS 251910
RWRWY

WYOMING REGIONAL WEATHER ROUNDUP
NATIONAL WEATHER SERVICE CHEYENNE WY
100 PM MDT SUN SEP 25 2016

NOTE:  "FAIR" INDICATES FEW OR NO CLOUDS BELOW 12,000 FEET
WITH NO SIGNIFICANT WEATHER AND/OR OBSTRUCTIONS TO VISIBILITY.

WYZ001-252000-
YELLOWSTONE NATIONAL PARK

CITY           SKY/WX    TMP DP  RH WIND       PRES   REMARKS
LK YELLOWSTONE   N/A     49  31  49 CALM      30.54F
W YELLOWSTONE  NOT AVBL

$$
WYZ002>013-054>058-071-098>099-252000-
NORTHERN WYOMING

CITY           SKY/WX    TMP DP  RH WIND       PRES   REMARKS
JACKSON        NOT AVBL
CODY           FAIR      57  38  48 E8        30.41F
GREYBULL       FAIR      57  42  57 CALM      30.41F
WORLAND        FAIR      57  40  52 N5        30.42F
SHERIDAN       FAIR      62  35  36 VRB3      30.38F
BUFFALO        FAIR      56  36  47 SE3       30.41F
GILLETTE       FAIR      57  31  37 NW13      30.39F
HULETT         FAIR      55  32  41 W10G21    30.39S
NEWCASTLE      FAIR      55  30  38 NW15G24   30.40F

$$
WYZ014>020-022>026-101>103-252000-
CENTRAL WYOMING

CITY           SKY/WX    TMP DP  RH WIND       PRES   REMARKS
BIG PINEY      FAIR      55  33  43 CALM      30.51F
PINEDALE       FAIR      55  25  30 NW15G23   30.51F
DUBOIS         FAIR      55  25  30 NW16G24   30.47F
LANDER         FAIR      56  40  55 CALM      30.43F
RIVERTON       FAIR      55  40  56 E5        30.45F
CASPER         CLOUDY    57  38  48 VRB3      30.43F
DOUGLAS        FAIR      60  34  37 NW17G23   30.42F

$$
WYZ021-027>030-104>119-252000-
SOUTHERN WYOMING

CITY           SKY/WX    TMP DP  RH WIND       PRES   REMARKS
EVANSTON       FAIR      56  32  40 N6        30.54F
FORT BRIDGER   FAIR      58  33  38 W6        30.56F
ROCK SPRINGS   FAIR      53  34  48 W10       30.51F
DIXON          MOCLDY    55  36  48 W8        30.53F
RAWLINS        PTSUNNY   55  35  47 W15G21    30.50F
SARATOGA       FAIR      54  32  43 W7G22     30.50F
LARAMIE        FAIR      53  30  41 N8        30.47F
CHEYENNE       FAIR      59  28  30 NW10G22   30.43F
TORRINGTON     FAIR      61  32  33 NW14      30.39F
PINE BLUFFS    FAIR      61  30  31 NW22      30.42F

$$



USA.gov is the U.S. government's official web portal to all federal, state and local government web resources and services.